Content
SEND FEEDBACK

Daily
Averages
Monthly
Summary
United States of America

STATEN ISLAND, NEW YORK


Home > North America > United States > New York
Elevation: 152 feet     Latitude: 40 35N     Longitude: 074 09W

WEATHER
 
SELECT A DAY
Number of Records: 192,352;   Date Range: 1/1/95 - 10/20/14
 
SHARE

PRINT THIS DATA

[ ← Previous Day ]
WEATHER ALMANAC - JANUARY 11, 2013
[ Next Day → ]
[ °C ]   °F
Weather ElementAverageHighLow
Temperature43.3 °F46.4 °F (4:08 pm)35.1 °F (2:51 am)
Dewpoint37.9 °F45 °F (6:51 pm)24.1 °F (1:51 am)
Humidity82.4 %100 % (8:40 pm)59 % (1:51 am)
Barometer30.28 in30.51 in (1:51 am)30.09 in (11:51 pm)
Wind Speed4.3 mph8.1 mph (1:51 am)
Weather ElementAverage
Visibility5.8 mi
Wind DirectionENE (70 °)

Weather ElementTotal
Precipitation1.16 in
Heating Degree Days24.3 (Base 65)
Averaged from 36 records on January 11, 2013
WEATHER CONDITIONS BREAKOUT
WIND DIRECTION BREAKOUT
WEATHER BY HOUR - JANUARY 11, 2013
[ °C ]   °F
Local TimeTemperatureDewpointHumidityBarometerVisibilityWind DirectionWind SpeedGust SpeedPrecipitationEventsConditions
1:51 AM37.0 °F24.1 °F59 %30.51 in10.0 miNNE (20°)8.1 mphMostly Cloudy
2:51 AM35.1 °F24.1 °F64 %30.51 in10.0 miNNE (30°)5.8 mphMostly Cloudy
3:51 AM36.0 °F24.1 °F62 %30.48 in10.0 miNorth (10°)5.8 mphMostly Cloudy
4:51 AM36.0 °F24.1 °F62 %30.46 in10.0 miNorth (10°)6.9 mphOvercast
5:51 AM37.0 °F25.0 °F62 %30.47 in10.0 miCalmOvercast
6:51 AM37.9 °F25.0 °F60 %30.47 in10.0 miCalmMostly Cloudy
7:51 AM39.0 °F26.1 °F60 %30.48 in10.0 miCalmOvercast
8:51 AM41.0 °F28.9 °F62 %30.46 in10.0 miEast (80°)5.8 mphOvercast
9:51 AM42.1 °F30.9 °F65 %30.45 in10.0 miEast (80°)5.8 mphOvercast
10:51 AM43.0 °F32.0 °F65 %30.41 in10.0 miEast (80°)5.8 mphOvercast
11:51 AM44.1 °F33.1 °F65 %30.37 in10.0 miEast (90°)5.8 mphOvercast
12:51 PM45.0 °F36.0 °F71 %30.34 in10.0 miVariable4.6 mph0.00 inRainLight Rain
1:51 PM45.0 °F37.0 °F74 %30.32 in10.0 miEast (90°)5.8 mph0.00 inRainLight Rain
2:51 PM45.0 °F37.9 °F76 %30.30 in10.0 miEast (80°)5.8 mph0.00 inRainLight Rain
3:51 PM45.0 °F39.9 °F82 %30.27 in10.0 miESE (110°)4.6 mph0.00 inRainLight Rain
4:08 PM46.4 °F39.2 °F76 %30.27 in10.0 miEast (90°)4.6 mph0.00 inOvercast
4:51 PM46.0 °F41.0 °F83 %30.25 in6.0 miEast (90°)4.6 mph0.00 inRainLight Rain
5:23 PM46.4 °F42.8 °F87 %30.23 in3.0 miSE (130°)5.8 mph0.01 inRainLight Rain
5:49 PM46.4 °F44.6 °F93 %30.22 in3.0 miSSE (150°)3.5 mph0.05 inRainLight Rain
5:51 PM46.0 °F44.1 °F93 %30.22 in3.0 miSE (140°)3.5 mph0.05 inRainLight Rain
6:13 PM46.4 °F44.6 °F93 %30.20 in3.0 miSE (130°)5.8 mph0.01 inRainLight Rain
6:31 PM46.4 °F44.6 °F93 %30.18 in3.0 miESE (120°)5.8 mph0.03 inRainLight Rain
6:51 PM46.0 °F45.0 °F96 %30.17 in3.0 miSE (130°)3.5 mph0.06 inRainRain
7:13 PM46.4 °F44.6 °F93 %30.18 in3.0 miCalm0.06 inRainRain
7:29 PM46.4 °F44.6 °F93 %30.19 in2.5 miCalm0.13 inRainHeavy Rain
7:41 PM46.4 °F44.6 °F93 %30.20 in3.0 miCalm0.18 inRainLight Rain
7:51 PM46.0 °F45.0 °F96 %30.20 in3.0 miCalm0.19 inRainLight Rain
8:11 PM46.4 °F44.6 °F93 %30.19 in2.5 miCalm0.03 inRainLight Rain
8:40 PM44.6 °F44.6 °F100 %30.18 in1.0 miENE (60°)5.8 mph0.05 inRainLight Rain
8:51 PM44.1 °F43.0 °F96 %30.17 in1.0 miNE (50°)6.9 mph0.07 inRainRain
9:51 PM43.0 °F43.0 °F100 %30.14 in1.0 miNNE (20°)5.8 mph0.09 inRainLight Rain
10:37 PM44.6 °F44.6 °F100 %30.13 in1.0 miNNW (340°)3.5 mph0.04 inRainLight Rain
10:51 PM44.1 °F44.1 °F100 %30.12 in1.0 miNorth (360°)3.5 mph0.05 inRainLight Rain
11:26 PM42.8 °F42.8 °F100 %30.10 in2.0 miNorth (10°)8.1 mph0.02 inRainLight Rain
11:28 PM42.8 °F42.8 °F100 %30.11 in1.0 miNorth (10°)8.1 mph0.02 inRainLight Rain
11:51 PM43.0 °F43.0 °F100 %30.09 in1.0 miNorth (10°)6.9 mph0.02 inRainLight Rain
Hourly data recorded from KEWR, located miles away from Staten Island, New York







STORIES FROM OUR PARTNERS